Weather History for New Orleans NAS, LA

Change the Weather History Date:

Friday, May 24, 2013

  Actual Average Record
Temperature  
Mean Temperature 81 °F -  
Max Temperature 91 °F 84 °F 91 °F (2005)
Min Temperature 71 °F 67 °F 64 °F (2002)
Cooling Degree Days 16    
Growing Degree Days 31 (Base 50)    
Moisture  
Dew Point 68 °F    
Average Humidity 65    
Maximum Humidity 90    
Minimum Humidity 50    
Precipitation  
Precipitation 0.00 in - - ()
Sea Level Pressure  
Sea Level Pressure 30.11 in    
Wind  
Wind Speed 5 mph (NW)    
Max Wind Speed 15 mph    
Max Gust Speed -    
Visibility 9 miles    
Events Fog , Thunderstorm    
Averages and records for this station are not official NWS values.
T = Trace of Precipitation, MM = Missing Value Source: NWS Daily Summary

Daily Weather History Graph

Daily Weather History Graph

Search for Another Location

Airport:

Trip Planner

Search our weather history database for the weather conditions in past years. The results will help you decide how hot, cold, wet, or windy it might be!

Date:

Astronomy

May. 24, 2013 Rise Set
Actual Time 6:02 AM CDT 7:51 PM CDT
Civil Twilight 5:35 AM CDT 8:18 PM CDT
Nautical Twilight 5:03 AM CDT 8:50 PM CDT
Astronomical Twilight 4:29 AM CDT 9:24 PM CDT
Moon 7:36 PM CDT (5/24) 5:30 AM CDT (5/24)
Length of Visible Light 14h 42m
Length of Day
13h 49m
Full, 100% of the Moon is Illuminated
May 24
Full
May 24
Full
May 31
Last Quarter
Jun 8
New
Jun 16
First Quarter

Hourly Weather History & Observations

Time (CDT) Temp. Heat Index Dew Point Humidity Pressure Visibility Wind Dir Wind Speed Gust Speed Precip Events Conditions
12:55 AM - - - N/A% 30.06 in - North - - N/A   Unknown
1:55 AM - - - N/A% 30.06 in - North - - N/A   Unknown
2:55 AM - - - N/A% 30.06 in - North - - N/A   Unknown
3:55 AM - - - N/A% 30.06 in - North - - N/A   Unknown
4:55 AM - - - N/A% 30.09 in - North - - N/A   Unknown
5:55 AM - - - N/A% 30.09 in - North - - N/A   Unknown
6:07 AM 71.6 °F - 66.2 °F 83% 30.09 in 7.0 mi Calm Calm - N/A Fog Shallow Fog
6:55 AM 72.1 °F - 65.7 °F 80% 30.10 in 6.0 mi North - - N/A   Haze
7:55 AM 77.0 °F - 68.5 °F 75% 30.13 in 7.0 mi Calm Calm - N/A   Scattered Clouds
8:55 AM 82.0 °F 83.6 °F 64.4 °F 55% 30.14 in 10.0 mi North 8.1 mph - N/A   Mostly Cloudy
9:55 AM 82.9 °F 84.6 °F 64.9 °F 54% 30.14 in 10.0 mi NNW 8.1 mph - N/A   Scattered Clouds
10:55 AM 84.9 °F 86.6 °F 64.9 °F 51% 30.15 in 10.0 mi NNW 8.1 mph - N/A   Scattered Clouds
11:55 AM 88.0 °F 92.9 °F 70.0 °F 55% 30.14 in 10.0 mi NNW 8.1 mph - N/A   Mostly Cloudy
12:55 PM 91.0 °F 96.6 °F 70.0 °F 50% 30.14 in 8.0 mi NNW 6.9 mph - N/A   Mostly Cloudy
1:55 PM 89.1 °F 96.0 °F 72.0 °F 57% 30.13 in 10.0 mi North 5.8 mph - N/A   Mostly Cloudy
2:55 PM 90.0 °F 96.9 °F 72.0 °F 55% 30.13 in 10.0 mi NNE 10.4 mph - N/A   Mostly Cloudy
3:55 PM 89.1 °F 94.1 °F 70.0 °F 53% 30.12 in 10.0 mi ENE 11.5 mph - N/A Thunderstorm Thunderstorm
4:37 PM 82.4 °F 84.6 °F 66.2 °F 58% 30.12 in 10.0 mi SW 15.0 mph - N/A   Mostly Cloudy
4:55 PM 81.0 °F 82.5 °F 64.0 °F 56% 30.12 in 10.0 mi WSW 10.4 mph - N/A   Mostly Cloudy
5:55 PM 82.0 °F 83.4 °F 64.0 °F 54% 30.09 in 10.0 mi Variable 4.6 mph - N/A   Mostly Cloudy
6:55 PM 82.9 °F 86.5 °F 69.1 °F 63% 30.10 in 10.0 mi SW 4.6 mph - N/A   Mostly Cloudy
7:55 PM 77.0 °F - 72.0 °F 84% 30.12 in 10.0 mi SW 4.6 mph - N/A   Mostly Cloudy
8:55 PM 75.9 °F - 72.0 °F 87% 30.13 in 9.0 mi West 5.8 mph - N/A   Overcast
9:55 PM 75.0 °F - 72.0 °F 90% 30.14 in 8.0 mi Variable 3.5 mph - N/A   Overcast
10:55 PM 75.9 °F - 69.1 °F 79% 30.15 in 10.0 mi Variable 3.5 mph - N/A   Mostly Cloudy
11:55 PM - - - N/A% 30.15 in - North - - N/A   Unknown